460P/PanSTARRS (2021)

Japanese version
Home page
Updated on April 22, 2023

---------------------------------------------------------------------

* Profile

Designation 460P/2020 U6
Recovery Date October 17, 2020
Magnitude 22.6 mag
Recoverer Pan-STARRS 1 telescope (Haleakala)

* Orbital Elements

                    Epoch = 2021 July  5.0 TT
     T = 2021 June 17.30762 TT        Peri. = 351.88801
     e = 0.6652062                    Node  = 180.52654 2000.0
     q = 1.0128243 AU                 Incl. =  18.89375
       a =  3.0252183 AU   n = 0.18731346   P =   5.26 years

* Magnitudes Graph

        H = 19.0  G = 0.15

---------------------------------------------------------------------

The orbital elements are printed on CBET 5243.
The magnitudes graphs are made with Comet for Windows.

---------------------------------------------------------------------

Copyright(C) Seiichi Yoshida (comet@aerith.net). All rights reserved.